sat.trackr.live / text

‹ back to catalog

STARLINK-35862

NORAD 66628 · 2025-271M

PAYLOAD ACTIVE UNKNOWN

§ Identity

Operator
Country
US
Launch date
2025-11-23
Launch site
AFWTR
Launch vehicle
Mass (kg)
RCS (m²)

Purposes: comms

External: N2YO · Heavens-Above · Gunter

§ Orbital elements

Epoch: 2026-05-25T03:32:58.923744Z

Period
93.85 min
Inclination
53.1579°
Eccentricity
0.0001067
Mean motion
15.34414677 rev/d
Perigee alt
461.9 km
Apogee alt
463.4 km
Semi-major
6,840.8 km
B*
5.4399e-4
RAAN
143.3139°
Arg perigee
82.6605°
Mean anomaly
277.4519°
Rev number
2,929

§ Raw data

STARLINK-358621 66628U 25271M   26145.14790421  .00018056  00000+0  54399-3 0  99932 66628  53.1579 143.3139 0001067  82.6605 277.4519 15.34414677 29294

JSON: /api/v1/satellites/66628 · /tle

For live sub-satellite position, see the globe view (requires WebGL).

§ Visibility from observer

Set your observer location to see the next 7 days of passes ≥ 10°. The values pass through the URL so the page stays shareable.

No JS? Fill the form by hand. The geolocation button needs JavaScript.